FW2738 Weather Reports


Display with metric or nautical units.
time (UTC)temp
F
wind
direction
speed
MPH
gust
MPH
rain 1hr
in
rain 24hr
in
rain mn
in
humidity
%
barometer
mb
20260831103044 77 157 2.0 5.0 0.00 0.00 0.00 67 1013.6
20260831101551 77 157 3.0 8.0 0.00 0.00 0.00 66 1013.7
20260831100056 77 155 3.0 7.0 0.00 0.00 0.00 66 1013.7
20260831094542 77 146 4.0 6.0 0.00 0.00 0.00 65 1013.6
20260831093041 78 144 3.0 5.0 0.00 0.00 0.00 65 1013.5
20260831091539 78 145 3.0 8.0 0.00 0.00 0.00 63 1013.5
20260831090053 78 132 5.0 8.0 0.00 0.00 0.00 63 1013.4
20260831084538 79 146 3.0 8.0 0.00 0.00 0.00 62 1013.2
20260831083036 79 142 5.0 9.0 0.00 0.00 0.00 61 1013.2
20260831081536 80 122 3.0 4.0 0.00 0.00 0.00 60 1013.1
20260831080035 80 121 3.0 4.0 0.00 0.00 0.00 58 1013.1
20260831074535 80 140 3.0 6.0 0.00 0.00 0.00 58 1012.9
20260831073035 81 116 6.0 9.0 0.00 0.00 0.00 57 1012.9
20260831071532 80 112 4.0 6.0 0.00 0.00 0.00 58 1013.0
20260831070035 80 120 2.0 6.0 0.00 0.00 0.00 58 1013.1
20260831064529 80 105 4.0 7.0 0.00 0.00 0.00 58 1013.1
20260831063027 76 102 1.0 3.0 0.00 0.00 0.00 67 1013.0
20260831061527 76 168 0.0 0.0 0.00 0.00 0.00 67 1013.0
20260831060027 77 168 0.0 0.0 0.00 0.00 0.00 66 1012.9
20260831054526 77 168 0.0 0.0 0.00 0.00 0.00 65 1013.0
20260831053022 77 168 0.0 0.0 0.00 0.00 0.00 65 1012.9
20260831051526 77 168 0.0 0.0 0.00 0.00 0.00 64 1012.9
20260831050016 78 168 0.0 0.0 0.00 0.00 0.00 63 1012.7
20260831044516 78 168 0.0 0.0 0.00 0.00 0.00 62 1012.7
20260831043015 78 168 0.0 0.0 0.00 0.00 0.00 62 1012.6
20260831041523 80 168 0.0 0.0 0.00 0.00 0.00 61 1012.6
20260831040014 80 168 0.0 0.0 0.00 0.00 0.00 62 1012.7
20260831034516 80 168 0.0 0.0 0.00 0.00 0.00 61 1012.7
20260831033014 80 168 0.0 0.0 0.00 0.00 0.00 59 1012.4
20260831031513 81 168 0.0 0.0 0.00 0.00 0.00 57 1012.5
20260831030018 81 168 0.0 0.0 0.00 0.00 0.00 58 1012.4
20260831024513 82 168 0.0 0.0 0.00 0.00 0.00 57 1012.3
20260831023012 82 168 0.0 0.0 0.00 0.00 0.00 56 1012.0
20260831021511 83 168 0.0 0.0 0.00 0.00 0.00 54 1011.9
20260831020011 83 168 0.0 1.0 0.00 0.00 0.00 53 1011.8
20260831014511 84 168 0.0 2.0 0.00 0.00 0.00 51 1011.5
20260831013011 86 168 0.0 2.0 0.00 0.00 0.00 48 1011.5
20260831011514 89 222 0.0 2.0 0.00 0.00 0.00 44 1011.3
20260831010010 90 170 0.0 0.0 0.00 0.00 0.00 43 1011.1
20260831004509 92 171 0.0 2.0 0.00 0.00 0.00 40 1011.2
20260831003009 94 172 1.0 5.0 0.00 0.00 0.00 36 1011.1
20260831001507 96 141 4.0 8.0 0.00 0.00 0.00 35 1011.2
20260831000007 97 142 6.0 11.0 0.00 0.00 0.00 34 1011.2
20260830234506 97 175 7.0 14.0 0.00 0.00 0.00 34 1011.4
20260830233006 97 122 8.0 14.0 0.00 0.00 0.00 34 1011.5
20260830231507 97 135 8.0 11.0 0.00 0.00 0.00 34 1011.3
20260830230004 97 145 7.0 15.0 0.00 0.00 0.00 35 1011.3
20260830224503 98 165 10.0 13.0 0.00 0.00 0.00 34 1011.4
20260830223002 99 133 10.0 16.0 0.00 0.00 0.00 34 1011.5
20260830221501 98 190 7.0 12.0 0.00 0.00 0.00 34 1011.5
20260830214559 97 108 5.0 11.0 0.00 0.00 0.00 35 1011.6
20260830213058 100 130 5.0 9.0 0.00 0.00 0.00 35 1011.9
20260830211556 97 140 8.0 12.0 0.00 0.00 0.00 35 1011.9
20260830210054 98 140 6.0 15.0 0.00 0.00 0.00 36 1011.9
20260830204552 98 213 5.0 12.0 0.00 0.00 0.00 36 1012.2
20260830203106 99 143 6.0 17.0 0.00 0.00 0.00 35 1012.2
20260830201549 99 174 10.0 21.0 0.00 0.00 0.00 36 1012.5
20260830200045 97 211 4.0 10.0 0.00 0.00 0.00 37 1013.0
20260830194542 98 205 12.0 16.0 0.00 0.00 0.00 36 1013.2
20260830193040 98 214 7.0 13.0 0.00 0.00 0.00 37 1013.3
20260830191539 97 208 10.0 16.0 0.00 0.00 0.00 37 1013.4
20260830190037 97 235 12.0 18.0 0.00 0.00 0.00 37 1013.7
20260830184534 97 196 11.0 19.0 0.00 0.00 0.00 38 1013.9
20260830183035 96 210 9.0 18.0 0.00 0.00 0.00 38 1013.9
20260830181536 96 183 11.0 18.0 0.00 0.00 0.00 39 1014.1
20260830180133 96 162 11.0 16.0 0.00 0.00 0.00 39 1014.2
20260830174529 95 169 8.0 22.0 0.00 0.00 0.00 43 1014.4
20260830173035 95 223 10.0 19.0 0.00 0.00 0.00 44 1014.5
20260830171526 94 211 9.0 17.0 0.00 0.00 0.00 46 1014.9
20260830170022 94 179 10.0 15.0 0.00 0.00 0.00 46 1014.9
20260830164531 93 225 10.0 15.0 0.00 0.00 0.00 47 1015.0
20260830163019 92 200 10.0 14.0 0.00 0.00 0.00 48 1015.1
20260830161518 92 200 10.0 15.0 0.00 0.00 0.00 50 1015.2
20260830160016 91 212 9.0 14.0 0.00 0.00 0.00 51 1015.1
20260830154512 90 213 10.0 15.0 0.00 0.00 0.00 53 1015.2
20260830153010 89 235 9.0 12.0 0.00 0.00 0.00 55 1015.2
20260830151516 88 232 7.0 13.0 0.00 0.00 0.00 58 1015.1
20260830150006 86 210 8.0 12.0 0.00 0.00 0.00 60 1015.2
20260830144504 86 180 6.0 11.0 0.00 0.00 0.00 61 1015.2
20260830143005 86 217 6.0 12.0 0.00 0.00 0.00 62 1015.2
20260830141601 84 172 6.0 10.0 0.00 0.00 0.00 63 1015.2
20260830134557 81 161 7.0 12.0 0.00 0.00 0.00 66 1015.2
20260830133137 80 171 8.0 12.0 0.00 0.00 0.00 65 1015.1
20260830131612 79 144 2.0 6.0 0.00 0.00 0.00 66 1015.0
20260830130053 77 209 2.0 5.0 0.00 0.00 0.00 67 1014.9
20260830124608 76 139 2.0 4.0 0.00 0.00 0.00 68 1014.7
20260830123053 75 148 0.0 2.0 0.00 0.00 0.00 69 1014.7
20260830121547 74 155 0.0 2.0 0.00 0.00 0.00 70 1014.4
20260830120051 74 150 0.0 0.0 0.00 0.00 0.00 69 1014.3
20260830114546 74 138 0.0 0.0 0.00 0.00 0.00 69 1014.0
20260830113045 75 138 0.0 0.0 0.00 0.00 0.00 68 1014.0
20260830111542 75 138 0.0 0.0 0.00 0.00 0.00 67 1013.9
20260830110044 76 128 0.0 0.0 0.00 0.00 0.00 66 1013.8
20260830104539 76 126 1.0 4.0 0.00 0.00 0.00 65 1013.7